Location: Newport
(44.6370°N, 124.0520°W)
Time: 09:13:50
(UTC-07:00)

Tiangong 1 - Pass Details

Date: 07 October 2017
Orbit: 293 x 320 km, 42.8° (Epoch: 20 October)

Event Time Altitude Azimuth Distance (km) Brightness Sun altitude
Rises 20:22:30 0° 255° (WSW) 2,031 5.9 -18.1°
Reaches altitude 10° 20:24:31 10° 250° (WSW) 1,198 4.4 -18.5°
Enters shadow 20:26:32 39° 219° (SW) 476 1.7 -18.8°
